Location: Unspecified
(0.0000°N, 0.0000°E)
Time: 07:49:07
(UTC+00:00)

N. Korean satellite - Pass Details

Date: 16 January 2019
Orbit: 455 x 511 km, 97.2° (Epoch: 18 March)

Event Time Altitude Azimuth Distance (km) Brightness Sun altitude
Rises 18:29:44 0° 195° (SSW) 2,500 10.7 -4.7°
Reaches altitude 10° 18:32:12 10° 214° (SSW) 1,631 10.2 -5.2°
Maximum altitude 18:34:42 19° 259° (W) 1,205 9.9 -5.8°
Drops below altitude 10° 18:37:13 10° 305° (NW) 1,647 9.8 -6.4°
Sets 18:39:45 0° 324° (NW) 2,535 10.4 -7.0°
